FW6082 Weather Reports


time (UTC)temp
C
wind
direction
speed
KPH
gust
KPH
rain 1hr
cm
rain 24hr
cm
rain mn
cm
humidity
%
barometer
mb
20260831164540 19 22 0.0 6.4 0.00 0.23 0.23 34 1021.3
20260831163038 18 26 0.0 8.0 0.00 0.23 0.23 35 1021.4
20260831161535 18 200 0.0 0.0 0.00 0.23 0.23 34 1021.8
20260831160039 18 170 1.6 6.4 0.00 0.23 0.23 38 1022.1
20260831154554 18 89 0.0 3.2 0.00 0.23 0.23 39 1022.4
20260831153026 17 43 1.6 4.8 0.00 0.23 0.23 39 1022.6
20260831151528 17 354 0.0 3.2 0.00 0.23 0.23 41 1022.9
20260831150016 16 38 0.0 3.2 0.00 0.23 0.23 44 1023.2
20260831144514 15 38 0.0 1.6 0.00 0.23 0.23 46 1023.3
20260831143010 15 4 1.6 4.8 0.00 0.23 0.23 51 1023.3
20260831141504 14 358 0.0 0.0 0.00 0.23 0.23 53 1023.4
20260831134600 12 126 0.0 4.8 0.00 0.23 0.23 59 1023.6
20260831133051 11 83 0.0 1.6 0.00 0.23 0.23 64 1023.6
20260831131647 10 83 0.0 1.6 0.00 0.23 0.23 68 1023.6
20260831130052 8 83 0.0 3.2 0.00 0.23 0.23 77 1023.7
20260831124548 7 119 0.0 3.2 0.03 0.23 0.23 85 1023.8
20260831123040 6 119 0.0 0.0 0.03 0.23 0.23 84 1023.9
20260831121546 6 119 0.0 0.0 0.03 0.23 0.23 83 1023.9
20260831120039 6 119 0.0 1.6 0.03 0.23 0.23 83 1023.8
20260831114537 6 119 0.0 0.0 0.00 0.23 0.23 82 1023.7
20260831113134 7 119 0.0 0.0 0.00 0.23 0.23 82 1023.8
20260831111532 7 119 0.0 1.6 0.00 0.23 0.23 83 1023.5
20260831110033 7 119 0.0 0.0 0.00 0.23 0.23 83 1023.4
20260831104531 7 119 0.0 4.8 0.00 0.23 0.23 82 1023.5
20260831103032 7 64 1.6 9.7 0.00 0.23 0.23 84 1023.3
20260831101527 7 242 0.0 1.6 0.00 0.23 0.23 84 1023.3
20260831100032 7 242 0.0 1.6 0.03 0.23 0.23 85 1023.3
20260831094638 7 242 0.0 1.6 0.05 0.23 0.23 85 1023.2
20260831093037 7 242 0.0 1.6 0.10 0.23 0.23 84 1023.1
20260831091521 7 242 0.0 1.6 0.10 0.23 0.23 84 1023.2
20260831090020 7 315 0.0 4.8 0.15 0.20 0.20 84 1023.0
20260831084517 7 348 0.0 3.2 0.18 0.18 0.18 83 1022.6
20260831083014 7 170 0.0 1.6 0.13 0.13 0.13 81 1022.6
20260831081511 8 170 0.0 3.2 0.13 0.13 0.13 78 1022.1
20260831080107 8 14 0.0 6.4 0.08 0.08 0.08 76 1021.7
20260831074504 9 205 0.0 6.4 0.00 0.00 0.00 71 1021.4
20260831073104 9 39 0.0 6.4 0.00 0.00 0.00 65 1021.0
20260831071612 10 211 1.6 14.5 0.00 0.00 0.00 63 1020.6
20260831070057 10 231 3.2 11.3 0.00 0.00 0.00 60 1020.2
20260831064604 10 100 1.6 6.4 0.00 0.00 0.00 60 1020.4
20260831063055 10 60 0.0 3.2 0.00 0.00 0.00 60 1020.0
20260831061553 10 282 0.0 4.8 0.00 0.00 0.00 60 1020.0
20260831054550 10 299 8.0 19.3 0.00 0.00 0.00 59 1019.6
20260831053052 10 217 1.6 17.7 0.00 0.00 0.00 61 1019.5
20260831051544 10 290 6.4 16.1 0.00 0.00 0.00 64 1019.4
20260831050044 10 261 0.0 6.4 0.00 0.00 0.00 63 1019.4
20260831044548 10 328 1.6 8.0 0.00 0.00 0.00 63 1019.4
20260831043043 10 222 0.0 4.8 0.00 0.00 0.00 63 1019.3
20260831041541 10 322 0.0 3.2 0.00 0.00 0.00 65 1019.3
20260831040037 10 98 0.0 3.2 0.00 0.00 0.00 65 1019.0
20260831034533 10 58 0.0 4.8 0.00 0.00 0.00 65 1019.0
20260831033043 10 253 1.6 8.0 0.00 0.00 0.00 66 1018.8
20260831031534 9 307 0.0 3.2 0.00 0.00 0.00 69 1018.6
20260831030030 8 307 0.0 0.0 0.00 0.00 0.00 70 1018.4
20260831024529 8 307 0.0 0.0 0.00 0.00 0.00 70 1018.2
20260831023035 8 307 0.0 0.0 0.00 0.00 0.00 68 1018.0
20260831021535 9 307 0.0 0.0 0.00 0.00 0.00 67 1017.9
20260831020051 9 307 0.0 1.6 0.00 0.00 0.00 66 1017.9
20260831014523 10 307 0.0 1.6 0.00 0.00 0.00 65 1017.7
20260831013021 10 307 0.0 11.3 0.00 0.00 0.00 64 1017.6
20260831011525 10 329 1.6 6.4 0.00 0.00 0.00 63 1017.4
20260831010019 10 82 0.0 8.0 0.00 0.00 0.00 64 1017.2
20260831004517 10 30 1.6 6.4 0.00 0.00 0.00 63 1017.0
20260831003014 11 262 3.2 14.5 0.00 0.00 0.00 63 1016.8
20260831001518 11 317 0.0 9.7 0.00 0.00 0.00 63 1016.6
20260831000019 11 228 4.8 19.3 0.00 0.00 0.00 63 1015.9
20260830234522 11 226 4.8 16.1 0.00 0.00 0.00 62 1015.6
20260830233013 12 272 8.0 22.5 0.00 0.00 0.00 62 1015.2
20260830231517 12 219 4.8 17.7 0.00 0.00 0.00 61 1015.0
20260830230012 12 214 4.8 16.1 0.00 0.00 0.00 60 1014.4
20260830224511 12 294 6.4 19.3 0.00 0.00 0.00 59 1014.3
20260830223011 13 233 4.8 19.3 0.00 0.00 0.00 57 1014.0
20260830221512 13 307 3.2 20.9 0.00 0.00 0.00 57 1013.7
20260830220008 13 257 6.4 20.9 0.00 0.00 0.00 57 1013.3
20260830214508 14 193 6.4 19.3 0.00 0.00 0.00 56 1013.1
20260830213007 15 308 6.4 17.7 0.00 0.00 0.00 54 1013.0
20260830211506 16 288 8.0 17.7 0.00 0.00 0.00 51 1012.9
20260830210018 16 290 4.8 17.7 0.00 0.00 0.00 48 1012.7
20260830204505 17 273 6.4 16.1 0.00 0.00 0.00 45 1012.7
20260830203004 18 315 4.8 19.3 0.00 0.00 0.00 42 1012.5
20260830201503 18 256 8.0 16.1 0.00 0.00 0.00 42 1012.5
20260830200002 18 267 8.0 16.1 0.00 0.00 0.00 40 1012.3
20260830194602 18 247 9.7 20.9 0.00 0.00 0.00 40 1012.3
20260830193059 18 232 6.4 14.5 0.00 0.00 0.00 40 1012.6
20260830191556 18 245 6.4 19.3 0.00 0.00 0.00 41 1012.6
20260830190056 18 259 8.0 17.7 0.00 0.00 0.00 41 1012.9
20260830184603 18 265 9.7 22.5 0.00 0.00 0.00 42 1013.0
20260830183054 18 253 6.4 24.1 0.00 0.00 0.00 42 1013.1
20260830181550 17 303 8.0 19.3 0.00 0.00 0.00 43 1013.5
20260830180047 17 257 8.0 17.7 0.00 0.00 0.00 43 1013.9
20260830174547 17 273 8.0 19.3 0.00 0.00 0.00 44 1014.0
20260830173044 17 230 8.0 16.1 0.00 0.00 0.00 44 1014.2
20260830171543 17 280 9.7 20.9 0.00 0.00 0.00 46 1014.2
20260830170042 17 261 8.0 17.7 0.00 0.00 0.00 46 1014.6